SCP
0 0 0 1 2 2 3 2 1 1 1 0 0 0 0 0 0 0 0 0 0 0 0 0 0 0 0 0 0 0 0 0 0 0 0 0 0 0 0 0 0 0 0
0 0 0 1 2 2 2 2 1 1 1 0 0 0 0 0 0 0 0 0 0 0 0 0 0 0 0 0 0 0 0 0 0 0 0 0 0 0 0 0 0 0 0
0 0 0 1 1 2 1 1 1 1 0 0 0 0 0 0 0 0 0 0 0 0 0 0 0 0 0 0 0 0 0 0 0 0 0 0 0 0 0 0 0 0 0
0 0 0 1 1 1 1 1 1 0 0 0 0 0 0 0 0 0 0 0 0 0 0 0 0 0 0 0 0 0 0 0 0 0 0 0 0 0 0 0 0 0 0
0 0 0 0 0 0 1 0 0 0 0 0 0 0 0 0 0 0 0 0 0 0 0 0 0 0 0 0 0 0 0 0 0 0 0 0 0 0 0 0 0 0 0
0 0 0 0 0 0 0 0 0 0 0 0 0 0 0 0 0 0 -0 0 0 0 0 0 0 0 0 0 0 0 0 0 0 0 0 0 0 0 0 0 0 0 0
0 0 0 0 0 0 0 0 0 0 0 0 0 0 0 0 0 0 0 0 0 0 0 0 0 0 0 0 0 0 0 0 0 0 0 0 0 0 0 0 0 0 0
0 0 0 0 0 0 0 0 0 0 0 0 0 0 0 0 0 0 0 0 0 0 0 0 0 0 0 0 0 0 0 0 0 0 0 0 0 0 0 0 0 0 0
0 0 0 0 0 0 0 0 0 0 0 0 0 0 0 0 0 0 0 0 0 0 0 0 0 0 0 0 0 0 0 0 0 0 0 0 0 0 0 0 0 0 0
0 0 -0 0 0 0 0 0 0 0 0 0 -0 0 0 0 0 0 0 0 0 0 0 0 0 0 0 0 0 0 0 0 0 0 0 0 0 0 0 0 0 0 0
-0 -0 0 0 0 0 0 0 0 0 0 0 0 0 0 0 0 0 0 0 0 0 0 0 0 -0 0 0 0 0 0 0 0 0 0 0 0 0 0 0 0 0 0
-0 -0 0 -0 0 0 0 0 0 0 0 0 0 0 0 -0 0 0 -0 -0 0 0 0 0 0 -0 -0 0 0 0 0 0 0 0 0 0 0 0 0 0 0 0 0
0 0 0 0 0 0 -0 0 0 0 0 0 0 0 0 0 0 -0 -0 -0 -0 0 0 -0 -0 -0 0 0 0 0 0 0 0 0 0 0 0 0 0 0 0 0 0
-0 0 0 -0 0 0 0 0 0 0 0 0 0 0 0 0 0 0 0 0 -0 -0 -0 -0 -0 -0 0 0 0 0 0 0 0 0 0 0 0 0 0 0 0 0 0
0 0 0 0 0 0 0 0 0 0 0 0 0 -0 -0 0 0 0 -0 -0 -0 -0 -0 -0 0 0 0 0 0 0 0 0 0 0 0 0 0 0 0 0 0 0 0
0 0 0 0 0 0 0 0 0 0 -0 -0 -0 0 0 -0 -0 -0 -0 -0 -0 -0 -0 -0 0 0 0 0 0 0 0 0 0 0 0 0 0 0 0 0 0 0 0
0 0 0 0 0 0 0 0 0 -0 -0 -0 -0 -0 -0 -0 -0 -0 -0 -0 -0 -0 -0 0 0 0 -0 -0 0 0 0 0 0 0 0 0 0 0 0 0 -0 0 0
0 0 0 0 0 0 0 0 0 0 0 0 -0 -0 -0 -0 -0 -0 -0 -0 -0 -0 -0 0 0 0 0 0 0 0 0 0 0 0 0 0 0 0 0 -0 -0 0 0
0 0 0 0 0 0 0 0 0 -0 0 0 0 -0 -0 -0 -0 -0 -0 -0 -0 -0 0 0 0 0 0 0 0 0 0 0 0 0 0 0 0 0 0 -0 -0 -0 0
0 0 0 0 0 0 0 0 -0 0 -0 0 0 0 0 0 0 -0 -0 -0 -0 -0 0 0 0 0 0 0 0 0 0 0 0 0 0 0 0 0 0 0 -0 -0 0
0 0 0 0 0 0 0 0 -0 -0 -0 -0 0 0 0 0 0 -0 -0 -0 -0 -0 0 0 0 0 0 0 0 0 0 0 0 0 0 0 0 0 0 0 -0 -0 0
0 0 0 0 0 0 0 0 -0 -0 0 0 0 0 0 0 -0 -0 -0 -0 -0 -0 0 -0 0 0 0 0 0 0 0 0 0 0 0 0 0 0 0 0 0 0 0
0 0 0 0 0 0 0 0 0 0 0 0 0 0 0 0 -0 -0 -0 -0 -0 0 -0 0 0 -0 0 0 0 0 0 0 0 0 0 0 0 -0 -0 0 0 0 0
0 0 0 0 0 0 0 0 0 0 0 0 0 0 0 -0 -0 -0 -0 -0 -0 0 -0 -0 -0 0 0 0 0 0 0 0 0 0 0 0 -0 -0 -0 -0 0 0 0
0 0 0 0 0 0 0 0 0 0 0 0 0 0 -0 0 -0 -0 -0 -0 0 -0 -0 -0 -0 0 0 0 0 0 0 0 0 0 0 0 -0 -0 -0 -0 -0 0 0
0 0 0 0 0 0 0 0 0 0 0 0 0 0 0 0 -0 -0 -0 0 -0 -0 -0 -0 0 0 0 0 0 0 0 0 0 0 0 -0 -0 -0 -0 -0 0 0 0
Wind_Speed_500mb
49 63 67 75 92 93 81 78 73 76 72 90 97 91 90 82 77 68 62 58 54 46 37 29 23 19 10 7 6 8 8 9 6 7 21 28 35 41 37 32 34 36 38
50 60 74 71 81 103 74 74 72 73 75 93 94 83 89 83 78 77 68 58 52 44 37 29 21 12 7 5 8 7 6 2 6 10 18 25 32 39 39 35 33 36 41
25 23 45 66 84 75 66 66 69 73 80 96 98 93 95 89 80 70 62 57 48 39 33 25 17 12 9 8 6 6 6 8 8 11 16 24 38 50 49 45 38 38 42
20 17 25 45 51 48 56 56 61 67 91 107 107 101 89 79 72 67 59 52 45 41 30 22 17 15 12 9 8 8 8 8 10 16 24 33 46 57 54 56 56 51 48
25 14 28 45 46 47 40 51 57 69 94 116 112 105 88 79 69 64 57 53 44 38 29 24 23 16 8 6 6 7 8 9 15 26 29 36 51 62 59 61 58 63 55
21 10 18 34 37 43 51 50 67 81 94 89 83 77 88 76 66 64 62 50 43 31 34 30 23 17 14 12 12 12 10 11 23 28 33 43 52 54 49 54 59 67 68
43 19 15 30 44 49 54 68 88 94 82 100 70 85 81 76 71 59 58 46 42 41 35 31 28 23 16 16 23 16 14 21 24 26 39 49 51 48 50 54 54 55 52
33 30 33 32 63 69 72 71 54 89 102 87 90 78 77 78 65 56 52 54 50 44 40 36 30 27 24 18 15 8 13 17 21 30 41 48 44 40 40 42 46 49 42
28 46 41 49 71 84 91 99 84 60 77 83 88 83 76 65 55 56 56 56 56 52 46 41 34 29 24 17 8 9 15 19 22 34 42 37 32 30 32 40 46 49 53
30 48 64 69 74 85 86 89 94 90 94 92 85 79 75 65 56 55 55 57 58 57 51 45 38 31 27 22 14 15 17 23 30 36 31 33 39 39 35 34 37 42 44
27 46 62 77 88 71 79 88 91 100 102 94 88 84 75 61 61 57 54 54 56 55 48 43 39 33 33 29 24 25 25 24 29 30 32 39 45 48 42 38 32 31 35
35 52 65 78 80 73 78 96 100 100 97 96 95 89 74 65 60 59 56 52 50 49 47 40 35 30 34 35 32 24 21 26 31 33 39 47 54 56 50 43 37 28 23
43 55 68 83 89 95 98 101 103 100 99 98 94 86 76 69 68 64 60 55 50 49 44 36 32 33 35 37 33 29 32 39 43 47 48 44 48 51 47 38 38 33 25
50 65 76 85 94 98 106 101 97 99 96 95 88 84 75 70 68 60 56 51 47 46 38 31 31 35 39 39 34 34 37 42 44 44 44 41 44 52 50 47 49 45 41
57 64 74 85 90 97 99 100 98 86 83 89 85 79 80 75 63 54 48 45 39 34 35 30 33 35 42 42 40 39 40 41 42 41 47 46 47 53 55 48 48 48 46
64 72 76 83 88 89 91 87 71 68 62 67 71 76 70 64 59 52 43 35 29 23 30 36 38 40 43 44 43 41 43 42 40 40 44 50 50 51 55 55 51 49 48
65 82 87 86 89 89 87 87 89 76 70 65 65 67 63 61 53 43 36 34 29 23 37 37 40 40 42 43 42 43 40 38 35 39 45 51 49 44 51 53 57 48 43
78 84 86 89 91 92 88 89 88 85 82 76 66 63 55 45 39 33 30 34 38 37 39 37 37 34 36 38 40 43 37 37 43 50 49 49 50 49 46 51 55 52 46
68 72 76 81 85 84 84 84 87 89 88 82 71 56 44 41 38 35 29 36 40 39 35 36 33 31 30 32 34 36 41 41 45 52 55 51 50 52 43 44 48 54 46
62 63 71 74 74 73 76 86 87 84 80 71 66 57 48 45 45 42 38 37 38 37 35 36 34 32 31 30 30 33 41 46 49 55 55 52 49 50 44 45 49 54 52
66 66 65 64 71 80 88 88 83 78 72 65 56 42 35 40 42 37 35 33 32 34 34 32 33 33 32 32 33 34 39 48 50 52 55 51 49 50 44 42 44 47 51
53 58 63 67 77 84 84 80 73 67 63 57 49 36 29 35 34 33 33 34 35 34 30 28 30 30 32 35 38 37 39 46 50 50 53 49 50 47 45 45 45 45 51
57 55 60 73 77 79 77 68 60 57 54 50 43 38 33 34 32 31 31 33 35 31 30 29 28 29 32 36 39 41 41 44 48 48 51 50 49 48 46 49 49 45 45
54 61 68 77 76 72 61 57 54 50 46 45 43 41 38 37 35 35 36 36 33 31 29 29 27 28 29 32 39 41 38 37 42 45 46 51 49 50 44 48 51 44 41
61 65 74 69 66 64 65 60 53 47 44 44 42 36 33 32 33 35 36 33 31 29 30 28 26 25 28 32 35 38 37 32 38 42 44 49 52 51 48 47 51 47 43
57 62 55 55 65 69 61 55 49 43 43 41 38 34 33 32 32 34 32 30 29 29 28 27 26 28 29 29 31 33 35 34 32 36 40 46 54 54 53 51 51 54 43
Wind_Direction_500mb
266 238 233 226 229 235 236 236 228 229 230 220 208 205 200 197 194 197 203 199 196 196 197 195 199 199 205 228 248 260 262 246 224 244 279 304 319 328 335 342 339 338 338
289 252 234 225 220 230 234 236 226 229 225 214 209 205 201 195 197 207 198 188 192 188 188 186 186 179 183 219 209 222 232 298 313 295 312 332 338 350 352 357 350 349 346
326 252 231 230 226 228 238 236 225 225 216 209 205 202 193 189 185 185 182 183 177 173 173 169 170 167 174 151 177 120 68 25 359 349 350 347 358 0 355 354 358 353 353
331 260 217 214 223 233 240 238 220 213 199 205 197 195 187 180 182 176 175 171 169 165 163 162 152 146 135 155 123 73 59 48 15 355 359 1 0 359 358 352 350 359 354
315 265 221 218 222 224 221 216 208 198 182 191 189 180 177 177 174 170 170 169 164 157 150 146 139 138 131 110 69 66 48 29 7 4 1 2 359 359 356 349 345 345 354
328 313 243 200 200 206 195 194 183 187 195 192 171 168 172 165 168 172 167 162 154 145 139 137 136 124 99 76 58 62 77 26 19 5 4 360 357 351 348 346 344 351 357
284 250 175 186 182 186 177 174 168 164 168 168 165 162 150 156 164 163 157 149 142 134 131 130 120 107 105 93 83 86 42 27 23 7 359 353 348 346 341 343 348 355 357
135 157 165 167 160 158 153 148 166 157 156 160 157 159 163 155 156 152 145 139 132 127 123 118 115 116 110 99 101 76 49 31 26 1 350 346 341 341 345 348 354 354 5
116 142 157 160 154 148 143 141 143 155 152 153 159 152 145 140 137 142 141 135 127 123 117 112 111 110 104 106 110 65 42 41 8 353 350 350 352 1 359 354 2 359 356
136 142 147 147 145 141 142 146 150 154 154 145 140 136 126 129 137 137 136 130 125 118 113 108 101 91 83 82 76 55 41 23 357 355 3 20 21 16 13 5 2 355 353
135 144 147 143 144 145 144 147 148 142 136 134 133 125 121 134 130 129 127 126 119 115 110 103 90 76 66 59 51 42 31 5 359 12 24 29 25 21 19 15 13 355 346
134 145 139 139 143 143 148 138 138 136 131 125 122 123 128 124 120 121 121 115 115 113 105 99 90 71 58 48 46 45 28 19 28 35 35 30 24 22 19 19 17 7 354
136 138 139 136 139 141 142 140 133 127 126 127 128 129 127 120 118 116 114 117 114 109 107 102 87 65 54 49 47 42 38 41 39 38 36 31 27 22 18 18 19 22 23
132 132 136 135 135 136 135 136 135 132 135 131 128 126 125 123 124 123 123 120 116 114 113 100 76 62 54 51 51 48 47 44 44 43 35 32 30 25 23 19 14 14 16
131 135 135 135 133 132 132 132 134 136 135 133 131 130 131 128 126 126 125 126 122 111 110 99 79 64 55 54 56 50 45 46 40 36 30 32 31 25 26 24 16 16 17
134 134 133 131 131 129 126 121 118 121 126 124 127 131 129 126 127 128 124 113 105 110 105 90 77 65 56 58 54 49 46 45 38 32 29 29 30 22 25 25 19 19 16
133 130 131 128 126 125 126 124 124 121 119 121 125 127 127 126 126 121 116 113 106 112 93 86 75 65 61 59 54 47 48 45 37 31 29 26 27 26 20 25 20 21 19
137 133 131 131 131 130 127 128 127 125 124 120 119 119 121 121 114 112 120 118 107 94 88 82 74 67 65 60 55 50 51 45 39 32 29 27 25 23 21 25 22 19 20
138 136 136 136 134 133 133 132 129 127 124 121 121 119 120 119 115 113 115 102 97 92 89 85 77 72 72 63 57 51 47 44 38 33 30 26 24 21 28 27 26 24 24
135 135 135 134 134 132 133 132 131 128 128 128 126 127 128 125 113 106 97 93 93 92 89 87 83 79 75 66 60 52 45 43 38 35 29 28 25 25 29 29 30 21 24
139 137 136 138 136 137 135 133 131 133 129 125 125 128 128 119 111 106 101 95 91 91 91 88 86 79 73 67 60 52 46 42 39 33 29 29 25 28 33 35 34 27 24
136 136 136 134 138 137 134 131 131 130 127 125 128 132 130 116 116 112 105 99 96 94 94 93 88 81 72 63 55 49 46 41 36 33 28 29 27 29 34 37 38 33 26
138 135 137 139 138 135 134 136 134 130 128 130 132 132 133 125 124 120 109 101 100 101 98 94 87 79 67 58 51 46 44 39 35 33 29 30 30 31 34 37 39 36 33
135 141 143 142 141 138 138 137 135 134 136 133 134 131 131 126 120 114 108 103 105 104 100 94 85 76 66 57 52 47 45 43 38 35 34 33 36 34 36 39 41 42 42
144 149 146 145 143 141 143 144 142 138 137 135 130 128 125 119 114 110 109 110 110 106 96 88 81 73 64 56 51 49 46 45 42 38 40 37 40 39 39 40 41 44 45
149 148 150 150 146 150 150 148 142 140 141 136 133 132 128 124 115 109 110 111 108 101 92 85 78 71 65 60 56 52 45 41 39 36 37 39 39 42 40 41 43 45 48
Wind_Speed_850mb
49 63 67 75 92 93 81 78 73 76 72 90 97 91 90 82 77 68 62 58 54 46 37 29 23 19 10 7 6 8 8 9 6 7 21 28 35 41 37 32 34 36 38
50 60 74 71 81 103 74 74 72 73 75 93 94 83 89 83 78 77 68 58 52 44 37 29 21 12 7 5 8 7 6 2 6 10 18 25 32 39 39 35 33 36 41
25 23 45 66 84 75 66 66 69 73 80 96 98 93 95 89 80 70 62 57 48 39 33 25 17 12 9 8 6 6 6 8 8 11 16 24 38 50 49 45 38 38 42
20 17 25 45 51 48 56 56 61 67 91 107 107 101 89 79 72 67 59 52 45 41 30 22 17 15 12 9 8 8 8 8 10 16 24 33 46 57 54 56 56 51 48
25 14 28 45 46 47 40 51 57 69 94 116 112 105 88 79 69 64 57 53 44 38 29 24 23 16 8 6 6 7 8 9 15 26 29 36 51 62 59 61 58 63 55
21 10 18 34 37 43 51 50 67 81 94 89 83 77 88 76 66 64 62 50 43 31 34 30 23 17 14 12 12 12 10 11 23 28 33 43 52 54 49 54 59 67 68
43 19 15 30 44 49 54 68 88 94 82 100 70 85 81 76 71 59 58 46 42 41 35 31 28 23 16 16 23 16 14 21 24 26 39 49 51 48 50 54 54 55 52
33 30 33 32 63 69 72 71 54 89 102 87 90 78 77 78 65 56 52 54 50 44 40 36 30 27 24 18 15 8 13 17 21 30 41 48 44 40 40 42 46 49 42
28 46 41 49 71 84 91 99 84 60 77 83 88 83 76 65 55 56 56 56 56 52 46 41 34 29 24 17 8 9 15 19 22 34 42 37 32 30 32 40 46 49 53
30 48 64 69 74 85 86 89 94 90 94 92 85 79 75 65 56 55 55 57 58 57 51 45 38 31 27 22 14 15 17 23 30 36 31 33 39 39 35 34 37 42 44
27 46 62 77 88 71 79 88 91 100 102 94 88 84 75 61 61 57 54 54 56 55 48 43 39 33 33 29 24 25 25 24 29 30 32 39 45 48 42 38 32 31 35
35 52 65 78 80 73 78 96 100 100 97 96 95 89 74 65 60 59 56 52 50 49 47 40 35 30 34 35 32 24 21 26 31 33 39 47 54 56 50 43 37 28 23
43 55 68 83 89 95 98 101 103 100 99 98 94 86 76 69 68 64 60 55 50 49 44 36 32 33 35 37 33 29 32 39 43 47 48 44 48 51 47 38 38 33 25
50 65 76 85 94 98 106 101 97 99 96 95 88 84 75 70 68 60 56 51 47 46 38 31 31 35 39 39 34 34 37 42 44 44 44 41 44 52 50 47 49 45 41
57 64 74 85 90 97 99 100 98 86 83 89 85 79 80 75 63 54 48 45 39 34 35 30 33 35 42 42 40 39 40 41 42 41 47 46 47 53 55 48 48 48 46
64 72 76 83 88 89 91 87 71 68 62 67 71 76 70 64 59 52 43 35 29 23 30 36 38 40 43 44 43 41 43 42 40 40 44 50 50 51 55 55 51 49 48
65 82 87 86 89 89 87 87 89 76 70 65 65 67 63 61 53 43 36 34 29 23 37 37 40 40 42 43 42 43 40 38 35 39 45 51 49 44 51 53 57 48 43
78 84 86 89 91 92 88 89 88 85 82 76 66 63 55 45 39 33 30 34 38 37 39 37 37 34 36 38 40 43 37 37 43 50 49 49 50 49 46 51 55 52 46
68 72 76 81 85 84 84 84 87 89 88 82 71 56 44 41 38 35 29 36 40 39 35 36 33 31 30 32 34 36 41 41 45 52 55 51 50 52 43 44 48 54 46
62 63 71 74 74 73 76 86 87 84 80 71 66 57 48 45 45 42 38 37 38 37 35 36 34 32 31 30 30 33 41 46 49 55 55 52 49 50 44 45 49 54 52
66 66 65 64 71 80 88 88 83 78 72 65 56 42 35 40 42 37 35 33 32 34 34 32 33 33 32 32 33 34 39 48 50 52 55 51 49 50 44 42 44 47 51
53 58 63 67 77 84 84 80 73 67 63 57 49 36 29 35 34 33 33 34 35 34 30 28 30 30 32 35 38 37 39 46 50 50 53 49 50 47 45 45 45 45 51
57 55 60 73 77 79 77 68 60 57 54 50 43 38 33 34 32 31 31 33 35 31 30 29 28 29 32 36 39 41 41 44 48 48 51 50 49 48 46 49 49 45 45
54 61 68 77 76 72 61 57 54 50 46 45 43 41 38 37 35 35 36 36 33 31 29 29 27 28 29 32 39 41 38 37 42 45 46 51 49 50 44 48 51 44 41
61 65 74 69 66 64 65 60 53 47 44 44 42 36 33 32 33 35 36 33 31 29 30 28 26 25 28 32 35 38 37 32 38 42 44 49 52 51 48 47 51 47 43
57 62 55 55 65 69 61 55 49 43 43 41 38 34 33 32 32 34 32 30 29 29 28 27 26 28 29 29 31 33 35 34 32 36 40 46 54 54 53 51 51 54 43
Wind_Direction_850mb
266 238 233 226 229 235 236 236 228 229 230 220 208 205 200 197 194 197 203 199 196 196 197 195 199 199 205 228 248 260 262 246 224 244 279 304 319 328 335 342 339 338 338
289 252 234 225 220 230 234 236 226 229 225 214 209 205 201 195 197 207 198 188 192 188 188 186 186 179 183 219 209 222 232 298 313 295 312 332 338 350 352 357 350 349 346
326 252 231 230 226 228 238 236 225 225 216 209 205 202 193 189 185 185 182 183 177 173 173 169 170 167 174 151 177 120 68 25 359 349 350 347 358 0 355 354 358 353 353
331 260 217 214 223 233 240 238 220 213 199 205 197 195 187 180 182 176 175 171 169 165 163 162 152 146 135 155 123 73 59 48 15 355 359 1 0 359 358 352 350 359 354
315 265 221 218 222 224 221 216 208 198 182 191 189 180 177 177 174 170 170 169 164 157 150 146 139 138 131 110 69 66 48 29 7 4 1 2 359 359 356 349 345 345 354
328 313 243 200 200 206 195 194 183 187 195 192 171 168 172 165 168 172 167 162 154 145 139 137 136 124 99 76 58 62 77 26 19 5 4 360 357 351 348 346 344 351 357
284 250 175 186 182 186 177 174 168 164 168 168 165 162 150 156 164 163 157 149 142 134 131 130 120 107 105 93 83 86 42 27 23 7 359 353 348 346 341 343 348 355 357
135 157 165 167 160 158 153 148 166 157 156 160 157 159 163 155 156 152 145 139 132 127 123 118 115 116 110 99 101 76 49 31 26 1 350 346 341 341 345 348 354 354 5
116 142 157 160 154 148 143 141 143 155 152 153 159 152 145 140 137 142 141 135 127 123 117 112 111 110 104 106 110 65 42 41 8 353 350 350 352 1 359 354 2 359 356
136 142 147 147 145 141 142 146 150 154 154 145 140 136 126 129 137 137 136 130 125 118 113 108 101 91 83 82 76 55 41 23 357 355 3 20 21 16 13 5 2 355 353
135 144 147 143 144 145 144 147 148 142 136 134 133 125 121 134 130 129 127 126 119 115 110 103 90 76 66 59 51 42 31 5 359 12 24 29 25 21 19 15 13 355 346
134 145 139 139 143 143 148 138 138 136 131 125 122 123 128 124 120 121 121 115 115 113 105 99 90 71 58 48 46 45 28 19 28 35 35 30 24 22 19 19 17 7 354
136 138 139 136 139 141 142 140 133 127 126 127 128 129 127 120 118 116 114 117 114 109 107 102 87 65 54 49 47 42 38 41 39 38 36 31 27 22 18 18 19 22 23
132 132 136 135 135 136 135 136 135 132 135 131 128 126 125 123 124 123 123 120 116 114 113 100 76 62 54 51 51 48 47 44 44 43 35 32 30 25 23 19 14 14 16
131 135 135 135 133 132 132 132 134 136 135 133 131 130 131 128 126 126 125 126 122 111 110 99 79 64 55 54 56 50 45 46 40 36 30 32 31 25 26 24 16 16 17
134 134 133 131 131 129 126 121 118 121 126 124 127 131 129 126 127 128 124 113 105 110 105 90 77 65 56 58 54 49 46 45 38 32 29 29 30 22 25 25 19 19 16
133 130 131 128 126 125 126 124 124 121 119 121 125 127 127 126 126 121 116 113 106 112 93 86 75 65 61 59 54 47 48 45 37 31 29 26 27 26 20 25 20 21 19
137 133 131 131 131 130 127 128 127 125 124 120 119 119 121 121 114 112 120 118 107 94 88 82 74 67 65 60 55 50 51 45 39 32 29 27 25 23 21 25 22 19 20
138 136 136 136 134 133 133 132 129 127 124 121 121 119 120 119 115 113 115 102 97 92 89 85 77 72 72 63 57 51 47 44 38 33 30 26 24 21 28 27 26 24 24
135 135 135 134 134 132 133 132 131 128 128 128 126 127 128 125 113 106 97 93 93 92 89 87 83 79 75 66 60 52 45 43 38 35 29 28 25 25 29 29 30 21 24
139 137 136 138 136 137 135 133 131 133 129 125 125 128 128 119 111 106 101 95 91 91 91 88 86 79 73 67 60 52 46 42 39 33 29 29 25 28 33 35 34 27 24
136 136 136 134 138 137 134 131 131 130 127 125 128 132 130 116 116 112 105 99 96 94 94 93 88 81 72 63 55 49 46 41 36 33 28 29 27 29 34 37 38 33 26
138 135 137 139 138 135 134 136 134 130 128 130 132 132 133 125 124 120 109 101 100 101 98 94 87 79 67 58 51 46 44 39 35 33 29 30 30 31 34 37 39 36 33
135 141 143 142 141 138 138 137 135 134 136 133 134 131 131 126 120 114 108 103 105 104 100 94 85 76 66 57 52 47 45 43 38 35 34 33 36 34 36 39 41 42 42
144 149 146 145 143 141 143 144 142 138 137 135 130 128 125 119 114 110 109 110 110 106 96 88 81 73 64 56 51 49 46 45 42 38 40 37 40 39 39 40 41 44 45
149 148 150 150 146 150 150 148 142 140 141 136 133 132 128 124 115 109 110 111 108 101 92 85 78 71 65 60 56 52 45 41 39 36 37 39 39 42 40 41 43 45 48